Tracking 25734 objects as of 27-May-2022
HD Live streaming from Space Station
objects crossing your sky now

COSMOS 1818 COOLANT

Track COSMOS 1818 COOLANT now!
10-day predictions


NORAD ID: 50789
Int'l Code: 1987-011BE
Perigee: 768.6 km
Apogee: 796.9 km
Inclination: 65.0 °
Period: 100.4 minutes
Semi major axis: 7153 km
RCS: Unknown
Launch date: February 1, 1987
Source: Commonwealth of Independent States (former USSR) (CIS)
Launch site: TYURATAM MISSILE AND SPACE COMPLEX (TTMTR)

Note: This is SATELLITE DEBRIS
aabbcc
Your satellite tracking list
Your tracking list is empty




NASA's NSSDC Master Catalog

Two Line Element Set (TLE):
1 50789U 87011BE  22145.11971243  .00000685  00000-0  27561-3 0  9991
2 50789  65.0098  39.5619 0019785 262.7062 170.2590 14.34828169445448
Source of the keplerian elements: AFSPC